TITAN 3C TRANSTAGE DEB, 39299

Orbit data source: Space-Track

TITAN 3C TRANSTAGE DEB, 39299 is space debris in GEO originally from a launch on Thu, 26 Sep 1968 UTC launched from the Air Force Eastern Test Range (AFETR). Debris objects in space refer to the collection of defunct objects orbiting the Earth. Examples of debris include non-operational satellites, rocket bodies, and fragments generated from explosions, collisions, or faulty payload assembly.

Not visible in the next 10 days
Identifier
39299, 1968-081AK
Orbit
GEO
Country
Flag of USUS
Related business
Manufacturer
Unknown
Mission
Spacecraft
Bus & Motor
Unknown
Mass
Unknown
Launch date (UTC)
1968-09-26 (57 years ago)
Launch vehicle
Unknown
Launch site
Air Force Eastern Test Range (AFETR)
Object type
Payload
Rocket body
Debris
Shape & HBR
Unknown shape, 1.1 m
Radar Cross Section
RCS unknown

Expand to show TLE details & history
Last TLE update: 16 hours ago

TLE from 16 hours ago
0 TITAN 3C TRANSTAGE DEB
1 39299U 68081AK  25352.84339933  .00000111  00000-0  00000-0 0  9997
2 39299   1.3614  13.1640 0154926  28.8475   9.5618  1.00398957 65366
Epoch: 2025-12-18T20:14Z
TLE epoch observation values (Epoch: 2025-12-18T20:14:29.702Z)
Latitude
0.87493°
Longitude
20.52778°
Altitude
35,105.979 km
Speed
3.123 km/s
True Right ascension
03h 27m 22s
True Declination
0° 52' 27"
Sunlit
Object was in daylight at epoch
Visualization orbit readout
Latitude
Unknown
Longitude
Unknown
Altitude
Unknown
Speed
Unknown
Apparent Right ascension
Unknown
Apparent Declination
Unknown
Sunlit
N/A
Visualization observer readout
Local Sidereal Time
10:54:07
Azimuth
Unknown
Elevation
Unknown
Doppler factor
Unknown
Orbital elements
Apogee altitude
36,404.759 km
Perigee altitude
35,099.346 km
Semi-major axis
42,130.189 km
Eccentricity
0.01549
Inclination
1.3614°
RAAN
13.164°
Arg. of periapsis
28.8475°
True anomaly
9.86244°
Mean anomaly
9.5618°
Eccentric anomaly
9.71154°
Mean motion
0.25099 °/min
Orbital period
1,434.33 mins
BSTAR
0
Loading maneuver chart data...
Computing Atmospheric mass density...

Documentation

Showing up to 5 results
|